Location: Gilevgi
(36.8751°N, 30.0581°E)
Time: 23:14:00
(UTC+00:00)

Cosmos 1076 Rocket - Visible Passes

Search period start: 12 March 2026 00:00
Search period end: 22 March 2026 00:00
Orbit: 580 x 604 km, 82.5° (Epoch: 12 March)

Date Brightness Start Highest point End Pass type
(mag) Time Alt. Az. Time Alt. Az. Time Alt. Az.
12 Mar 6.4 03:40:19 10° NNE 03:43:39 22° ENE 03:46:59 10° SE visible
12 Mar 4.9 17:41:26 10° SSW 17:45:20 38° W 17:49:15 10° N visible
13 Mar 5.8 17:50:48 10° SW 17:54:14 24° WNW 17:57:41 10° NNW visible
14 Mar 6.5 18:00:33 10° WSW 18:03:10 16° WNW 18:05:48 10° NW visible
15 Mar 3.6 16:30:28 10° S 16:34:31 53° E 16:38:37 10° NNE visible
15 Mar 7.1 18:11:34 10° W 18:12:09 10° WNW 18:12:45 10° WNW visible
16 Mar 3.4 16:39:08 10° S 16:43:18 87° E 16:47:30 10° N visible
17 Mar 6.8 02:47:50 10° NE 02:50:23 15° ENE 02:52:56 10° ESE visible
17 Mar 4.2 16:48:00 10° SSW 16:52:07 58° W 16:56:16 10° N visible
18 Mar 6.2 02:55:53 10° NNE 02:59:20 23° ENE 03:02:46 10° SE visible
18 Mar 5.3 16:57:07 10° SW 17:00:58 36° WNW 17:04:52 10° N visible
19 Mar 5.3 03:04:17 10° NNE 03:08:13 36° ENE 03:12:10 10° SE visible
19 Mar 6.2 17:06:30 10° SW 17:09:52 23° WNW 17:13:15 10° NNW visible
20 Mar 4.3 03:12:52 10° N 03:17:05 57° E 03:21:18 10° SSE visible
20 Mar 6.8 17:16:18 10° WSW 17:18:48 15° WNW 17:21:19 10° NW visible
21 Mar 3.5 03:21:36 10° N 03:25:54 89° W 03:30:11 10° S visible
